SCP
0 0 0 0 0 0 0 0 0 0 0 0 0 0 0 0 0 0 0 0 0 0 0 0 0 0 0 0 0 0 0 0 0 0 0 0 0 0 0 0 0 0 0 0
0 0 0 0 0 0 0 0 0 0 0 0 0 0 0 0 0 0 0 0 0 0 0 0 0 0 0 0 0 0 0 0 0 0 0 0 0 0 0 0 0 0 0 0
0 0 0 0 0 0 0 0 0 0 0 0 0 -0 0 0 0 0 0 0 0 0 0 0 0 0 0 0 0 0 0 0 0 0 0 0 0 0 0 0 0 0 0 0
0 0 0 0 0 0 0 0 0 0 0 0 0 -0 0 0 0 0 0 0 0 0 0 0 0 0 0 0 0 0 0 0 0 0 0 0 0 0 0 0 0 0 0 0
0 0 0 0 0 0 0 0 0 0 0 0 0 0 0 0 0 0 0 0 0 0 0 0 0 0 0 0 0 0 0 0 0 0 0 0 0 0 0 0 0 0 0 0
0 0 0 0 0 0 0 0 0 0 0 0 0 0 0 0 0 0 0 0 0 0 0 0 0 0 0 0 0 0 0 0 0 0 0 0 0 0 0 0 0 0 0 0
0 0 0 0 0 0 0 0 0 0 0 0 0 0 0 0 0 0 0 0 0 0 0 0 0 0 0 0 0 0 0 0 0 0 0 0 0 0 0 0 0 0 0 0
0 0 0 0 0 0 0 0 0 0 0 0 0 0 0 0 0 0 0 0 0 0 0 0 0 0 0 0 0 0 0 0 0 0 0 0 0 0 0 0 0 0 0 0
0 0 0 0 0 0 0 0 0 0 0 0 0 0 0 0 0 0 0 0 0 0 0 0 0 0 0 0 0 0 0 0 0 0 0 0 0 0 0 0 0 0 0 0
0 0 0 0 0 0 0 0 0 0 0 0 0 0 0 0 0 0 0 0 0 0 0 0 0 0 0 0 0 0 0 0 0 0 0 0 0 0 0 0 0 0 0 0
0 0 0 0 0 0 0 0 0 0 0 0 0 0 0 0 0 0 0 0 0 0 0 0 0 0 0 0 0 0 0 0 0 0 0 0 0 0 0 0 0 0 0 0
0 0 0 0 0 0 0 0 0 0 0 0 0 0 0 0 0 0 0 0 0 0 0 0 0 0 0 0 0 0 0 0 0 0 0 0 0 0 0 0 0 0 0 0
0 0 0 0 0 0 0 0 0 0 0 0 0 0 0 0 0 0 0 0 0 0 0 0 0 0 0 0 0 0 0 0 0 0 0 0 0 0 0 0 0 0 0 0
0 0 0 0 0 0 0 0 0 0 0 0 0 0 0 0 0 0 0 0 0 0 0 0 0 0 0 0 0 0 0 0 0 0 0 0 0 0 0 0 0 0 0 0
0 0 0 0 0 0 0 0 0 0 0 0 0 0 0 0 0 0 0 0 0 0 0 0 0 0 0 0 0 0 0 0 0 0 0 0 0 0 0 0 0 0 0 0
0 0 0 0 0 0 0 0 0 0 0 0 0 0 0 0 0 0 0 0 0 0 0 0 0 0 0 0 0 0 0 0 0 0 0 0 0 0 0 0 0 0 0 0
0 0 0 0 0 0 0 0 0 0 0 0 0 0 0 0 0 0 0 0 0 0 0 0 0 0 0 0 0 0 0 0 0 0 0 0 0 0 0 0 0 0 0 0
0 0 0 0 0 0 0 0 0 0 0 0 0 0 0 0 0 0 0 0 0 0 0 0 0 0 0 0 0 0 0 0 0 0 0 0 0 0 0 0 0 0 0 0
0 0 0 0 0 0 0 0 0 0 0 0 0 0 0 0 0 0 0 0 0 0 0 0 0 0 0 0 0 0 0 0 0 0 0 0 0 0 0 0 0 0 0 0
0 0 0 0 0 0 0 0 0 0 0 0 0 0 0 0 0 0 0 0 0 0 0 0 0 0 0 0 0 0 0 0 0 0 0 0 0 0 0 0 0 0 0 0
0 0 0 0 0 0 0 0 0 0 0 0 0 0 0 0 0 0 0 0 0 0 0 0 0 0 0 0 0 0 0 0 0 0 0 0 0 0 0 0 0 0 0 0
0 0 0 0 0 0 0 0 0 0 0 0 0 0 0 0 0 0 0 0 0 0 0 0 0 0 0 0 0 0 0 0 0 0 0 0 0 0 0 0 0 0 0 0
0 0 0 0 0 0 0 0 0 0 0 0 0 0 0 0 0 0 0 0 0 0 0 0 0 0 0 0 0 0 0 0 0 0 0 0 0 0 0 0 0 0 0 0
0 0 0 0 0 0 0 0 0 0 0 0 0 0 0 0 0 0 0 0 0 0 0 0 0 0 0 0 0 0 0 0 0 0 0 0 0 0 0 0 0 0 0 0
0 0 0 0 0 0 0 0 0 0 0 0 0 0 0 0 0 0 0 0 0 0 0 0 0 0 0 0 0 0 0 0 0 0 0 0 0 0 0 0 0 0 0 0
0 0 0 0 -0 -0 0 0 0 0 0 0 0 0 0 0 0 0 0 0 0 0 0 0 0 0 0 0 0 0 0 0 0 0 0 0 0 0 0 0 0 0 0 0
Wind_Speed_500mb
3 13 31 35 34 26 14 15 33 30 8 10 32 40 49 65 59 72 73 63 54 59 56 65 75 81 84 81 76 72 68 61 53 50 48 45 40 33 28 25 23 26 32 38
7 30 34 1 12 18 16 25 39 26 4 13 29 43 47 46 63 69 70 66 48 45 43 56 72 82 90 88 83 78 72 65 59 58 57 54 47 40 33 27 24 27 34 39
31 17 3 16 16 21 23 35 28 20 12 14 23 33 14 16 27 39 61 54 40 44 45 53 66 79 90 93 90 85 76 70 67 64 61 58 52 44 34 28 28 32 34 40
19 7 15 13 21 24 25 18 22 15 10 23 8 39 22 18 22 26 63 38 39 41 43 47 54 70 87 96 91 86 80 73 70 67 63 61 55 44 36 33 33 33 36 39
12 15 17 19 18 23 11 4 9 6 16 12 23 20 19 4 13 36 40 32 41 44 42 43 50 57 65 83 91 87 82 78 75 70 64 60 54 45 40 36 34 36 37 40
13 1 9 8 7 2 17 6 3 2 6 18 32 28 18 10 13 16 26 27 28 36 36 36 39 40 52 66 84 88 87 84 79 73 67 61 52 44 41 37 37 36 40 43
9 15 7 8 9 5 9 9 12 12 11 25 6 16 41 30 28 27 37 25 26 30 31 33 40 43 47 56 71 92 94 90 84 75 68 60 51 45 40 38 38 42 43 45
13 28 27 23 30 14 23 17 12 21 25 42 14 22 29 19 35 50 27 30 23 31 33 36 39 42 46 52 62 85 97 94 87 77 69 60 50 43 40 38 41 42 46 48
17 32 6 1 3 9 16 17 5 7 4 15 24 48 18 13 20 18 37 34 44 44 40 41 41 45 44 49 60 75 95 97 89 81 70 59 51 43 39 42 40 41 46 53
6 20 6 6 3 2 9 9 8 7 12 31 49 58 36 20 29 19 22 39 47 44 44 48 46 48 48 47 56 69 90 100 92 81 70 60 51 43 40 39 39 42 48 57
7 12 6 10 24 31 12 13 9 6 10 19 36 36 7 11 9 23 26 41 36 44 56 52 46 51 51 52 60 70 87 100 98 84 72 61 51 44 38 35 39 44 51 60
16 6 21 42 6 4 17 30 36 19 22 18 26 51 15 9 7 8 15 32 29 29 45 50 50 53 60 64 68 78 89 101 101 86 73 61 52 42 37 37 39 45 52 59
19 10 13 26 11 4 16 19 20 34 29 58 27 46 32 38 13 14 22 33 37 46 56 57 59 67 74 73 76 82 90 100 101 88 73 62 50 41 37 35 39 45 51 58
29 13 26 41 44 3 11 28 38 46 35 44 50 59 73 68 45 46 52 44 53 68 70 77 84 89 80 74 77 81 89 99 101 86 72 60 50 40 36 34 37 41 49 58
12 27 28 41 48 46 48 37 39 51 56 53 58 49 61 65 51 52 61 56 66 67 63 78 87 89 78 74 80 86 92 102 99 85 71 58 46 37 34 33 35 40 48 51
8 36 37 53 58 64 68 41 67 63 68 51 47 54 70 72 91 76 95 79 87 85 81 82 91 84 77 84 88 91 93 104 98 82 67 55 43 36 32 32 34 41 47 49
19 15 22 45 49 46 28 66 69 81 76 64 60 68 72 67 59 64 88 74 81 92 91 78 86 86 81 82 86 91 95 106 95 80 66 53 43 35 31 31 35 41 45 48
30 40 27 21 17 34 43 49 72 72 68 66 56 73 70 70 89 97 87 70 79 89 93 83 85 75 73 73 78 81 92 103 93 81 67 55 44 34 30 29 32 38 45 48
49 41 20 17 31 34 6 33 45 42 65 56 64 68 69 92 45 81 81 85 95 95 88 81 89 63 61 72 76 83 89 99 89 78 64 51 40 31 25 26 31 39 45 47
50 50 36 25 27 39 40 58 52 11 16 59 57 57 57 15 17 37 79 66 71 70 70 67 60 55 61 73 79 80 102 104 91 74 59 44 33 26 21 21 30 39 45 46
18 27 48 46 42 28 23 17 11 23 38 63 72 58 49 43 50 86 55 38 49 51 54 50 48 54 59 67 73 84 107 100 85 70 55 41 30 23 19 20 28 38 42 43
47 23 22 25 35 50 34 54 48 57 76 72 67 53 42 64 82 80 80 84 62 60 59 57 53 61 68 68 76 98 102 89 76 62 48 36 26 21 17 20 24 34 40 43
40 52 51 41 29 23 43 59 100 110 81 75 64 73 50 62 71 83 82 84 84 75 71 65 63 68 67 73 88 103 98 84 72 57 43 32 24 19 16 16 21 27 32 39
18 42 37 50 57 46 40 61 79 85 90 97 93 91 57 61 68 77 77 83 87 85 82 70 67 70 77 92 100 103 94 79 62 50 37 26 22 18 13 14 19 23 28 34
21 23 18 25 42 47 61 66 59 60 74 80 90 84 79 73 80 89 87 92 98 92 88 80 76 77 86 104 104 102 91 76 63 49 37 31 26 19 12 12 13 16 22 29
40 37 27 34 39 34 36 48 63 76 85 84 73 84 94 86 93 90 94 95 99 97 93 90 84 86 94 108 106 96 84 73 63 50 42 35 27 19 11 7 9 11 16 22
Wind_Direction_500mb
142 227 240 246 229 268 266 259 261 267 200 245 256 262 268 280 277 265 272 266 255 243 250 231 228 224 224 224 224 225 226 229 229 230 230 229 231 232 242 257 283 304 310 311
176 239 253 48 214 227 233 260 264 280 250 220 275 273 273 268 268 270 271 270 257 248 232 223 224 224 226 227 226 226 227 229 230 232 231 229 228 232 241 255 281 297 299 310
228 255 79 197 207 206 228 236 256 267 323 237 293 275 241 256 263 271 263 260 250 239 227 219 222 225 226 226 227 228 228 231 232 231 231 230 229 234 243 260 275 287 306 304
240 241 207 199 230 204 240 231 245 266 296 282 5 291 279 252 245 264 273 253 242 241 232 225 225 225 227 230 229 229 230 230 232 232 231 229 230 235 245 257 276 291 294 299
222 180 190 207 229 178 249 110 173 209 257 316 257 268 280 167 241 259 262 257 234 228 229 230 232 234 234 230 231 229 229 230 231 232 231 231 234 241 251 263 277 287 295 300
260 160 216 212 82 156 135 120 145 154 258 255 259 225 275 242 212 246 265 236 224 212 217 229 235 228 227 230 232 229 229 230 231 230 230 232 237 244 255 268 277 289 294 295
193 219 169 174 133 117 195 180 277 256 225 264 152 234 262 283 242 233 256 255 216 206 209 225 226 221 222 228 230 227 228 228 229 229 231 232 237 246 257 267 284 288 293 302
241 255 183 183 218 204 184 217 204 261 277 288 113 251 278 227 252 248 259 257 225 221 234 232 229 226 223 231 231 228 228 228 228 227 229 233 239 247 261 273 279 290 301 308
210 256 99 229 93 181 164 199 235 288 105 281 259 262 239 186 251 250 253 247 243 247 240 230 231 231 225 232 237 236 227 227 228 227 228 233 239 246 257 270 283 297 303 305
256 262 119 124 145 47 225 140 139 200 260 258 276 281 279 239 244 212 237 239 242 240 228 232 233 237 230 239 242 237 229 229 228 226 228 232 238 246 258 272 287 295 301 305
204 217 197 151 205 191 171 204 227 311 227 253 265 270 103 171 263 207 219 233 243 242 231 230 240 235 237 240 238 237 229 225 225 222 226 230 237 246 258 274 286 295 304 308
207 208 234 239 146 310 252 232 215 225 228 235 259 270 118 58 146 182 237 243 252 257 239 230 242 237 242 242 235 236 227 224 224 221 223 226 234 243 257 272 285 297 306 311
170 207 241 255 213 178 212 210 232 242 258 248 236 252 255 270 266 252 247 257 274 260 259 246 243 246 255 245 236 232 226 222 219 218 219 224 230 240 255 273 288 302 310 314
180 172 217 239 251 100 191 228 222 223 234 252 242 260 274 274 272 279 273 264 264 263 258 257 255 258 252 241 235 228 223 220 217 215 217 222 228 238 256 270 289 304 312 314
183 234 236 249 261 274 278 270 251 234 242 243 257 258 261 273 276 272 275 276 274 270 259 261 262 258 248 239 233 230 226 218 213 213 214 218 227 239 257 278 295 305 310 313
203 244 247 252 261 263 258 260 262 266 258 252 254 262 262 269 278 282 275 270 274 273 265 264 268 262 251 244 238 230 224 214 211 210 211 216 224 239 259 280 294 303 310 312
211 224 220 240 232 251 256 241 249 256 262 257 255 255 269 268 264 262 271 275 268 268 268 265 260 265 261 249 239 230 222 211 207 206 208 214 224 239 260 278 293 305 311 313
241 226 228 247 231 230 234 244 237 245 251 258 254 253 256 259 265 272 272 270 264 266 271 269 270 267 255 242 232 224 219 207 204 204 205 211 220 236 258 278 296 307 311 316
219 231 236 232 222 242 180 236 226 229 246 257 249 252 250 256 267 270 265 261 263 269 273 271 275 267 248 230 222 219 209 202 202 203 206 210 220 237 257 282 302 307 311 315
225 228 229 224 232 236 234 237 240 78 250 249 240 249 254 261 248 262 272 260 260 267 267 269 267 248 228 219 216 211 202 198 198 200 204 211 225 242 259 287 305 311 314 318
202 216 227 235 245 247 222 209 125 194 242 247 250 248 249 248 237 252 270 249 249 247 247 251 256 246 232 221 212 203 198 196 194 196 201 209 226 243 267 294 308 313 314 320
223 206 214 231 243 248 218 228 221 237 242 243 256 258 233 245 250 247 250 257 248 243 242 238 236 227 222 212 204 199 194 194 193 193 199 210 224 242 264 291 310 312 317 321
231 226 237 223 232 240 215 223 228 238 250 251 252 254 251 246 250 258 253 255 261 254 244 234 227 219 213 203 198 194 192 191 191 192 198 208 220 236 259 292 308 312 318 322
279 265 263 261 252 263 253 236 238 241 241 247 253 259 259 244 253 257 260 259 259 252 244 232 221 211 200 194 192 194 188 188 192 191 196 208 218 227 251 289 305 315 325 326
275 296 284 290 289 282 286 280 284 289 288 273 265 265 263 257 258 260 260 264 264 253 241 231 220 208 199 194 189 188 187 187 189 196 198 202 211 216 237 274 299 317 327 337
269 281 278 275 296 282 283 298 300 299 295 291 288 284 281 279 270 264 264 266 261 250 241 228 217 208 199 192 186 184 184 187 194 190 194 194 199 202 209 251 302 333 337 337
Wind_Speed_850mb
3 13 31 35 34 26 14 15 33 30 8 10 32 40 49 65 59 72 73 63 54 59 56 65 75 81 84 81 76 72 68 61 53 50 48 45 40 33 28 25 23 26 32 38
7 30 34 1 12 18 16 25 39 26 4 13 29 43 47 46 63 69 70 66 48 45 43 56 72 82 90 88 83 78 72 65 59 58 57 54 47 40 33 27 24 27 34 39
31 17 3 16 16 21 23 35 28 20 12 14 23 33 14 16 27 39 61 54 40 44 45 53 66 79 90 93 90 85 76 70 67 64 61 58 52 44 34 28 28 32 34 40
19 7 15 13 21 24 25 18 22 15 10 23 8 39 22 18 22 26 63 38 39 41 43 47 54 70 87 96 91 86 80 73 70 67 63 61 55 44 36 33 33 33 36 39
12 15 17 19 18 23 11 4 9 6 16 12 23 20 19 4 13 36 40 32 41 44 42 43 50 57 65 83 91 87 82 78 75 70 64 60 54 45 40 36 34 36 37 40
13 1 9 8 7 2 17 6 3 2 6 18 32 28 18 10 13 16 26 27 28 36 36 36 39 40 52 66 84 88 87 84 79 73 67 61 52 44 41 37 37 36 40 43
9 15 7 8 9 5 9 9 12 12 11 25 6 16 41 30 28 27 37 25 26 30 31 33 40 43 47 56 71 92 94 90 84 75 68 60 51 45 40 38 38 42 43 45
13 28 27 23 30 14 23 17 12 21 25 42 14 22 29 19 35 50 27 30 23 31 33 36 39 42 46 52 62 85 97 94 87 77 69 60 50 43 40 38 41 42 46 48
17 32 6 1 3 9 16 17 5 7 4 15 24 48 18 13 20 18 37 34 44 44 40 41 41 45 44 49 60 75 95 97 89 81 70 59 51 43 39 42 40 41 46 53
6 20 6 6 3 2 9 9 8 7 12 31 49 58 36 20 29 19 22 39 47 44 44 48 46 48 48 47 56 69 90 100 92 81 70 60 51 43 40 39 39 42 48 57
7 12 6 10 24 31 12 13 9 6 10 19 36 36 7 11 9 23 26 41 36 44 56 52 46 51 51 52 60 70 87 100 98 84 72 61 51 44 38 35 39 44 51 60
16 6 21 42 6 4 17 30 36 19 22 18 26 51 15 9 7 8 15 32 29 29 45 50 50 53 60 64 68 78 89 101 101 86 73 61 52 42 37 37 39 45 52 59
19 10 13 26 11 4 16 19 20 34 29 58 27 46 32 38 13 14 22 33 37 46 56 57 59 67 74 73 76 82 90 100 101 88 73 62 50 41 37 35 39 45 51 58
29 13 26 41 44 3 11 28 38 46 35 44 50 59 73 68 45 46 52 44 53 68 70 77 84 89 80 74 77 81 89 99 101 86 72 60 50 40 36 34 37 41 49 58
12 27 28 41 48 46 48 37 39 51 56 53 58 49 61 65 51 52 61 56 66 67 63 78 87 89 78 74 80 86 92 102 99 85 71 58 46 37 34 33 35 40 48 51
8 36 37 53 58 64 68 41 67 63 68 51 47 54 70 72 91 76 95 79 87 85 81 82 91 84 77 84 88 91 93 104 98 82 67 55 43 36 32 32 34 41 47 49
19 15 22 45 49 46 28 66 69 81 76 64 60 68 72 67 59 64 88 74 81 92 91 78 86 86 81 82 86 91 95 106 95 80 66 53 43 35 31 31 35 41 45 48
30 40 27 21 17 34 43 49 72 72 68 66 56 73 70 70 89 97 87 70 79 89 93 83 85 75 73 73 78 81 92 103 93 81 67 55 44 34 30 29 32 38 45 48
49 41 20 17 31 34 6 33 45 42 65 56 64 68 69 92 45 81 81 85 95 95 88 81 89 63 61 72 76 83 89 99 89 78 64 51 40 31 25 26 31 39 45 47
50 50 36 25 27 39 40 58 52 11 16 59 57 57 57 15 17 37 79 66 71 70 70 67 60 55 61 73 79 80 102 104 91 74 59 44 33 26 21 21 30 39 45 46
18 27 48 46 42 28 23 17 11 23 38 63 72 58 49 43 50 86 55 38 49 51 54 50 48 54 59 67 73 84 107 100 85 70 55 41 30 23 19 20 28 38 42 43
47 23 22 25 35 50 34 54 48 57 76 72 67 53 42 64 82 80 80 84 62 60 59 57 53 61 68 68 76 98 102 89 76 62 48 36 26 21 17 20 24 34 40 43
40 52 51 41 29 23 43 59 100 110 81 75 64 73 50 62 71 83 82 84 84 75 71 65 63 68 67 73 88 103 98 84 72 57 43 32 24 19 16 16 21 27 32 39
18 42 37 50 57 46 40 61 79 85 90 97 93 91 57 61 68 77 77 83 87 85 82 70 67 70 77 92 100 103 94 79 62 50 37 26 22 18 13 14 19 23 28 34
21 23 18 25 42 47 61 66 59 60 74 80 90 84 79 73 80 89 87 92 98 92 88 80 76 77 86 104 104 102 91 76 63 49 37 31 26 19 12 12 13 16 22 29
40 37 27 34 39 34 36 48 63 76 85 84 73 84 94 86 93 90 94 95 99 97 93 90 84 86 94 108 106 96 84 73 63 50 42 35 27 19 11 7 9 11 16 22
Wind_Direction_850mb
142 227 240 246 229 268 266 259 261 267 200 245 256 262 268 280 277 265 272 266 255 243 250 231 228 224 224 224 224 225 226 229 229 230 230 229 231 232 242 257 283 304 310 311
176 239 253 48 214 227 233 260 264 280 250 220 275 273 273 268 268 270 271 270 257 248 232 223 224 224 226 227 226 226 227 229 230 232 231 229 228 232 241 255 281 297 299 310
228 255 79 197 207 206 228 236 256 267 323 237 293 275 241 256 263 271 263 260 250 239 227 219 222 225 226 226 227 228 228 231 232 231 231 230 229 234 243 260 275 287 306 304
240 241 207 199 230 204 240 231 245 266 296 282 5 291 279 252 245 264 273 253 242 241 232 225 225 225 227 230 229 229 230 230 232 232 231 229 230 235 245 257 276 291 294 299
222 180 190 207 229 178 249 110 173 209 257 316 257 268 280 167 241 259 262 257 234 228 229 230 232 234 234 230 231 229 229 230 231 232 231 231 234 241 251 263 277 287 295 300
260 160 216 212 82 156 135 120 145 154 258 255 259 225 275 242 212 246 265 236 224 212 217 229 235 228 227 230 232 229 229 230 231 230 230 232 237 244 255 268 277 289 294 295
193 219 169 174 133 117 195 180 277 256 225 264 152 234 262 283 242 233 256 255 216 206 209 225 226 221 222 228 230 227 228 228 229 229 231 232 237 246 257 267 284 288 293 302
241 255 183 183 218 204 184 217 204 261 277 288 113 251 278 227 252 248 259 257 225 221 234 232 229 226 223 231 231 228 228 228 228 227 229 233 239 247 261 273 279 290 301 308
210 256 99 229 93 181 164 199 235 288 105 281 259 262 239 186 251 250 253 247 243 247 240 230 231 231 225 232 237 236 227 227 228 227 228 233 239 246 257 270 283 297 303 305
256 262 119 124 145 47 225 140 139 200 260 258 276 281 279 239 244 212 237 239 242 240 228 232 233 237 230 239 242 237 229 229 228 226 228 232 238 246 258 272 287 295 301 305
204 217 197 151 205 191 171 204 227 311 227 253 265 270 103 171 263 207 219 233 243 242 231 230 240 235 237 240 238 237 229 225 225 222 226 230 237 246 258 274 286 295 304 308
207 208 234 239 146 310 252 232 215 225 228 235 259 270 118 58 146 182 237 243 252 257 239 230 242 237 242 242 235 236 227 224 224 221 223 226 234 243 257 272 285 297 306 311
170 207 241 255 213 178 212 210 232 242 258 248 236 252 255 270 266 252 247 257 274 260 259 246 243 246 255 245 236 232 226 222 219 218 219 224 230 240 255 273 288 302 310 314
180 172 217 239 251 100 191 228 222 223 234 252 242 260 274 274 272 279 273 264 264 263 258 257 255 258 252 241 235 228 223 220 217 215 217 222 228 238 256 270 289 304 312 314
183 234 236 249 261 274 278 270 251 234 242 243 257 258 261 273 276 272 275 276 274 270 259 261 262 258 248 239 233 230 226 218 213 213 214 218 227 239 257 278 295 305 310 313
203 244 247 252 261 263 258 260 262 266 258 252 254 262 262 269 278 282 275 270 274 273 265 264 268 262 251 244 238 230 224 214 211 210 211 216 224 239 259 280 294 303 310 312
211 224 220 240 232 251 256 241 249 256 262 257 255 255 269 268 264 262 271 275 268 268 268 265 260 265 261 249 239 230 222 211 207 206 208 214 224 239 260 278 293 305 311 313
241 226 228 247 231 230 234 244 237 245 251 258 254 253 256 259 265 272 272 270 264 266 271 269 270 267 255 242 232 224 219 207 204 204 205 211 220 236 258 278 296 307 311 316
219 231 236 232 222 242 180 236 226 229 246 257 249 252 250 256 267 270 265 261 263 269 273 271 275 267 248 230 222 219 209 202 202 203 206 210 220 237 257 282 302 307 311 315
225 228 229 224 232 236 234 237 240 78 250 249 240 249 254 261 248 262 272 260 260 267 267 269 267 248 228 219 216 211 202 198 198 200 204 211 225 242 259 287 305 311 314 318
202 216 227 235 245 247 222 209 125 194 242 247 250 248 249 248 237 252 270 249 249 247 247 251 256 246 232 221 212 203 198 196 194 196 201 209 226 243 267 294 308 313 314 320
223 206 214 231 243 248 218 228 221 237 242 243 256 258 233 245 250 247 250 257 248 243 242 238 236 227 222 212 204 199 194 194 193 193 199 210 224 242 264 291 310 312 317 321
231 226 237 223 232 240 215 223 228 238 250 251 252 254 251 246 250 258 253 255 261 254 244 234 227 219 213 203 198 194 192 191 191 192 198 208 220 236 259 292 308 312 318 322
279 265 263 261 252 263 253 236 238 241 241 247 253 259 259 244 253 257 260 259 259 252 244 232 221 211 200 194 192 194 188 188 192 191 196 208 218 227 251 289 305 315 325 326
275 296 284 290 289 282 286 280 284 289 288 273 265 265 263 257 258 260 260 264 264 253 241 231 220 208 199 194 189 188 187 187 189 196 198 202 211 216 237 274 299 317 327 337
269 281 278 275 296 282 283 298 300 299 295 291 288 284 281 279 270 264 264 266 261 250 241 228 217 208 199 192 186 184 184 187 194 190 194 194 199 202 209 251 302 333 337 337